Zurück zum Katalog

CZ-3A DEB

LostGTO
NORAD 35550·DEBRIS·🇨🇳 China

Gestartet Feb 2, 2007 von Xichang Satellite Launch Center

Loading…

TLE

VeraltetSource: Space-Track

Epoche: Jun 14, 2026, 03:44 UTC

1 35550U 07003J   26165.15615752 -.00000396  00000-0  51042-3 0  9994
2 35550  24.6235  15.9389 7370552 289.2126   8.9979  2.09212561130202

Verfolge CZ-3A DEB in Echtzeit mit AllMySat

Download on the App Store